Lexington Weather

Lexington, Massachusetts, USA

42°F
4/22/2024 8:22am 
  • Lexington Conditions: Clear
  • Temperature: 41.7°F / 5.4°CWarmer 3.6°F than last hour.
  • Dew Point: 28.4°FDecreased 1.1°Fsince last hour.
  • Relative Humidity: 59%Decreased 12.0% since last hour.
  • Wind: Calm, 10-min avg: Calm, gust: None
  • Barometer: 29.95 in Steady
  • Visibility: 10 miles
  • Rain Today: 0.00 in
  •   

Regional Weather Roundup
for Boston, MA

        
000
ASUS41 KBOX 180810
RWRBOX

REGIONAL WEATHER ROUNDUP
NATIONAL WEATHER SERVICE BOSTON/NORTON MA
400 AM EDT THU APR 18 2024

NOTE:  "FAIR" INDICATES FEW OR NO CLOUDS BELOW 12,000 FEET WITH NO 
SIGNIFICANT WEATHER AND/OR OBSTRUCTIONS TO VISIBILITY.

MAZALL-180900-
EASTERN MASSACHUSETTS
  
CITY           SKY/WX    TMP DP  RH WIND       PRES   REMARKS
BOSTON         CLOUDY    46  39  76 E8        30.13S                  
BEVERLY        CLOUDY    45  34  65 E5        30.13R                  
LAWRENCE       CLOUDY    45  35  68 NE7       30.15R                  
BEDFORD        CLOUDY    46  35  65 E6        30.11S                  
NORWOOD        CLOUDY    50  33  52 E5        30.11F                  
MARSHFIELD     CLOUDY    46  39  76 E6        30.12S                  
PLYMOUTH       CLOUDY    47  29  49 E10       30.10F                  
TAUNTON        CLOUDY    50  31  48 E5        30.10F                  
NEW BEDFORD    CLOUDY    48  33  56 E7        30.09F                  
$$

MAZALL-180900-
CAPE COD AND THE ISLANDS
  
CITY           SKY/WX    TMP DP  RH WIND       PRES   REMARKS
FALMOUTH       CLOUDY    46  28  49 SE12      30.10F                  
HYANNIS        CLOUDY    46  27  47 E8        30.09F                  
CHATHAM        CLOUDY    45  32  60 E7        30.13F                  
PROVINCETOWN   CLOUDY    45  32  60 E8        30.14F                  
NANTUCKET      CLOUDY    44  35  70 E10       30.11F                  
MARTHAS VNYRD  LGT RAIN  46  37  71 E12       30.09F                  
$$
 
MAZALL-180900-
CENTRAL AND WESTERN MASSACHUSETTS
  
CITY           SKY/WX    TMP DP  RH WIND       PRES   REMARKS
WORCESTER      LGT RAIN  44  33  65 E7        30.07F                  
FITCHBURG      CLOUDY    48  35  60 E3        30.11F                  
ORANGE         CLOUDY    46  36  68 E3        30.10R                  
SPRINGFIELD    LGT RAIN  45  40  85 E3        30.06S                  
WESTFIELD      HVY RAIN  43  41  93 N5        30.08S FOG              
NORTH ADAMS    CLOUDY    47  39  74 E15G26    30.03S                  
PITTSFIELD     LGT RAIN  42  39  89 E10G18    30.01S                  
$$
 
RIZALL-180900-
RHODE ISLAND
  
CITY           SKY/WX    TMP DP  RH WIND       PRES   REMARKS
PROVIDENCE     CLOUDY    45  40  82 CALM      30.10F                  
NEWPORT        LGT RAIN  43  40  89 E5        30.08F                  
BLOCK ISLAND   LGT RAIN  42  38  85 E14G22    30.08S                  
SMITHFIELD     LGT RAIN  45  37  73 E5        30.09F                  
WESTERLY       RAIN      43  39  86 E8G23     30.07F FOG              
$$
 
CTZALL-180900-
CONNECTICUT
  
CITY           SKY/WX    TMP DP  RH WIND       PRES   REMARKS
BRADLEY INTL   CLOUDY    45  41  86 NE7       30.07S                  
HARTFORD       LGT RAIN  45  42  89 E3        30.07S FOG              
PLAINVILLE     LGT RAIN  44  44 100 NE6       30.06R                  
BRIDGEPORT     LGT RAIN  46  44  93 E24       30.02F                  
DANBURY        CLOUDY    46  42  86 E12G21    30.01F FOG              
GROTON         RAIN      44  42  93 E14G26    30.08R                  
NEW HAVEN      CLOUDY    47  44  90 E14       30.03F FOG              
CHESTER        RAIN      43  43 100 E9        30.05S                  
MERIDEN        LGT RAIN  44  41  89 NE5       30.06F                  
WILLIMANTIC    CLOUDY    42  39  89 VRB3      30.08F                  
OXFORD         LGT RAIN  43  42  97 E12       30.02F FOG              
$$

MEZ002-015-021-024-NHZ003-005-008-011-012-014-VTZ005-008-180900-
NORTHERN NEW ENGLAND
  
CITY           SKY/WX    TMP DP  RH WIND       PRES   REMARKS
PORTLAND ME    MOCLDY    38  34  85 NE5       30.18F                  
BANGOR ME      PTCLDY    32  26  78 CALM      30.22S                  
CONCORD NH     CLOUDY    43  36  76 NW5       30.13F                  
MANCHESTER NH  CLOUDY    45  35  68 NE3       30.12S                  
NASHUA NH      CLOUDY    46  40  79 NE3       30.13S                  
PORTSMOUTH NH  CLOUDY    44  39  82 NE10      30.15S                  
JAFFREY NH     CLOUDY    45  35  68 CALM      30.10R                  
KEENE NH       CLOUDY    47  36  65 NE3       30.09S                  
BURLINGTON VT  PTCLDY    48  32  53 SE10      30.01F                  
MT. WASHINGTON MOCLDY    27  14  59 SE7         N/A  WCI  19          
$$

NYZ052-076-180900-
EASTERN NEW YORK
  
CITY           SKY/WX    TMP DP  RH WIND       PRES   REMARKS
ALBANY         CLOUDY    49  44  83 S5        30.01R                  
NEW YORK CITY  DRIZZLE   47  44  90 NE16      29.97S FOG              
$$
 
ANZALL-180900-
MARINE OBSERVATIONS
  
STATION/POSITION TIME  TEMP    WIND        PRES    VSBY  WAVE
                       AIR SEA DIR/SP/G                  HT/PER
                 (UTC) (F)     (DEG/KT/KT) (MB)    (MI)  (FT/S)
BOSTON BUOY      0750   45      90/  6/  8 1020.1F         2/ 9
BUZZARDS BAY     0700   45      90/  9/ 10 1019.5F
NANTUCKET SOUND  0750   46 47   90/ 14/ 16 1019.0F         1/ 3
MASS BAY-STELLWA 0604   45 45  170/  4/  4 1021.7F  1 7/8  2/ 8
ISLE OF SHOALS   0700   45      50/ 13/ 16 1020.6F
S OF BLOCK IS    0756      45                N/A           4/ 4
$$

......................KEY.........................
  SKY/WX - SKY CONDITION/PRESENT WEATHER
  TMP    - TEMPERATURE IN FAHRENHEIT
  DWPT   - DEWPOINT IN FAHRENHEIT
  RH     - RELATIVE HUMIDITY IN PERCENT
  WIND   - DIRECTION AND SPEED IN MPH
  PRES   - MEAN SEA LEVEL PRESSURE IN INCHES OF HG
  WCI    - WIND CHILL INDEX
  VSB    - VISIBILITY IN MILES
  HX     - HEAT INDEX
  TC     - TEMPERATURE IN CELSIUS
  VRB    - VARIABLE WIND DIRECTION
  N/A    - NOT AVAILABLE
  
      

Other recent Regional Weather Roundups

Mon Apr 22, 8:10am EDT

Mon Apr 22, 7:10am EDT

Mon Apr 22, 6:10am EDT

Mon Apr 22, 5:10am EDT

Mon Apr 22, 4:10am EDT

Mon Apr 22, 3:10am EDT

Mon Apr 22, 2:10am EDT

Mon Apr 22, 1:10am EDT

Mon Apr 22, 12:10am EDT

Sun Apr 21, 11:10pm EDT

Sun Apr 21, 10:10pm EDT

Sun Apr 21, 9:10pm EDT

Sun Apr 21, 8:10pm EDT

Sun Apr 21, 7:10pm EDT

Sun Apr 21, 6:10pm EDT

Sun Apr 21, 5:10pm EDT

Sun Apr 21, 4:10pm EDT

Sun Apr 21, 3:10pm EDT

Sun Apr 21, 2:10pm EDT

Sun Apr 21, 1:10pm EDT

Sun Apr 21, 12:10pm EDT

Sun Apr 21, 11:10am EDT

Sun Apr 21, 10:10am EDT

Sun Apr 21, 9:10am EDT

Sun Apr 21, 8:10am EDT

Sun Apr 21, 7:10am EDT

Sun Apr 21, 6:10am EDT

Sun Apr 21, 5:10am EDT

Sun Apr 21, 4:10am EDT

Sun Apr 21, 3:10am EDT

Sun Apr 21, 2:10am EDT

Sun Apr 21, 1:10am EDT

Sun Apr 21, 12:10am EDT

Sat Apr 20, 11:10pm EDT

Sat Apr 20, 10:10pm EDT

Sat Apr 20, 9:10pm EDT

Sat Apr 20, 8:10pm EDT

Sat Apr 20, 7:10pm EDT

Sat Apr 20, 6:10pm EDT

Sat Apr 20, 5:10pm EDT

Sat Apr 20, 4:10pm EDT

Sat Apr 20, 3:10pm EDT

Sat Apr 20, 2:10pm EDT

Sat Apr 20, 1:10pm EDT

Sat Apr 20, 12:10pm EDT

Sat Apr 20, 11:10am EDT

Sat Apr 20, 10:10am EDT

Sat Apr 20, 9:10am EDT

Sat Apr 20, 8:10am EDT

Sat Apr 20, 7:10am EDT

Sat Apr 20, 6:10am EDT

Sat Apr 20, 5:10am EDT

Sat Apr 20, 4:10am EDT

Sat Apr 20, 3:10am EDT

Sat Apr 20, 2:10am EDT

Sat Apr 20, 1:10am EDT

Sat Apr 20, 12:10am EDT

Fri Apr 19, 11:10pm EDT

Fri Apr 19, 10:10pm EDT

Fri Apr 19, 9:10pm EDT

Fri Apr 19, 8:10pm EDT

Fri Apr 19, 7:10pm EDT

Fri Apr 19, 6:10pm EDT

Fri Apr 19, 5:10pm EDT

Fri Apr 19, 4:10pm EDT

Fri Apr 19, 3:10pm EDT

Fri Apr 19, 2:10pm EDT

Fri Apr 19, 1:10pm EDT

Fri Apr 19, 12:10pm EDT

Fri Apr 19, 11:10am EDT

Fri Apr 19, 10:10am EDT

Fri Apr 19, 9:10am EDT

Fri Apr 19, 8:10am EDT

Fri Apr 19, 7:10am EDT

Fri Apr 19, 6:10am EDT

Fri Apr 19, 5:10am EDT

Fri Apr 19, 4:10am EDT

Fri Apr 19, 3:10am EDT

Fri Apr 19, 2:10am EDT

Fri Apr 19, 1:10am EDT

Fri Apr 19, 12:10am EDT

Thu Apr 18, 11:10pm EDT

Thu Apr 18, 10:10pm EDT

Thu Apr 18, 9:10pm EDT

Thu Apr 18, 8:10pm EDT

Thu Apr 18, 7:10pm EDT

Thu Apr 18, 6:10pm EDT

Thu Apr 18, 5:10pm EDT

Thu Apr 18, 4:10pm EDT

Thu Apr 18, 3:10pm EDT

Thu Apr 18, 2:10pm EDT

Thu Apr 18, 1:10pm EDT

Thu Apr 18, 12:10pm EDT

Thu Apr 18, 11:10am EDT

Thu Apr 18, 10:10am EDT

Thu Apr 18, 9:10am EDT

Thu Apr 18, 8:10am EDT

Thu Apr 18, 7:10am EDT

Thu Apr 18, 6:10am EDT

Thu Apr 18, 5:10am EDT

Thu Apr 18, 3:10am EDT

Thu Apr 18, 2:10am EDT

Thu Apr 18, 1:10am EDT

Thu Apr 18, 12:10am EDT

Wed Apr 17, 11:10pm EDT

Wed Apr 17, 10:10pm EDT

Wed Apr 17, 9:10pm EDT

Wed Apr 17, 8:10pm EDT

Wed Apr 17, 7:10pm EDT

Wed Apr 17, 6:10pm EDT

Wed Apr 17, 5:10pm EDT

Wed Apr 17, 4:10pm EDT

Wed Apr 17, 3:10pm EDT

Wed Apr 17, 2:10pm EDT

Wed Apr 17, 1:10pm EDT

Wed Apr 17, 12:10pm EDT

Wed Apr 17, 11:10am EDT

Wed Apr 17, 10:10am EDT

Wed Apr 17, 9:10am EDT

Wed Apr 17, 8:10am EDT

Wed Apr 17, 7:10am EDT

Wed Apr 17, 6:10am EDT

Wed Apr 17, 5:10am EDT

Wed Apr 17, 4:10am EDT

Wed Apr 17, 3:10am EDT

Wed Apr 17, 2:10am EDT

Wed Apr 17, 1:10am EDT

Wed Apr 17, 12:10am EDT

Tue Apr 16, 11:10pm EDT

Tue Apr 16, 10:10pm EDT

Tue Apr 16, 9:10pm EDT

Tue Apr 16, 8:10pm EDT

Tue Apr 16, 7:10pm EDT

Tue Apr 16, 6:10pm EDT

Tue Apr 16, 5:10pm EDT

Tue Apr 16, 4:10pm EDT

Tue Apr 16, 3:10pm EDT

Tue Apr 16, 2:10pm EDT

Tue Apr 16, 1:10pm EDT

Tue Apr 16, 12:10pm EDT

Tue Apr 16, 11:10am EDT

Tue Apr 16, 10:10am EDT

Tue Apr 16, 9:10am EDT

Tue Apr 16, 8:10am EDT

Tue Apr 16, 7:10am EDT

Tue Apr 16, 6:10am EDT

Tue Apr 16, 5:10am EDT

Tue Apr 16, 4:10am EDT

Tue Apr 16, 3:10am EDT

Tue Apr 16, 2:10am EDT

Tue Apr 16, 1:10am EDT

Tue Apr 16, 12:10am EDT

Mon Apr 15, 11:10pm EDT

Mon Apr 15, 10:10pm EDT

Mon Apr 15, 9:10pm EDT

Mon Apr 15, 8:10pm EDT

Mon Apr 15, 7:10pm EDT

Mon Apr 15, 6:10pm EDT

Mon Apr 15, 5:10pm EDT

Mon Apr 15, 4:10pm EDT

Mon Apr 15, 3:10pm EDT

Mon Apr 15, 2:10pm EDT

Mon Apr 15, 1:10pm EDT

Mon Apr 15, 12:10pm EDT

Mon Apr 15, 11:10am EDT

Mon Apr 15, 10:10am EDT

Mon Apr 15, 9:10am EDT